Weather in Ust-Sosnovo

Russia / Kemerovo Oblast     55°13′32″N   84°59′41″E
temp.,
°C
wind,
m/s
gust,
m/s
humid.,
%
clouds,
%
prec.,
mm/h
press.,
hPa
HPBL,
m
20 april, tue
tue2001:00−8nw467281 0.1 1025775
04:00−9nw46745 0.0 1025692
07:00−9wnw477748 0.0 1026770
10:00−7wnw5665100 0.1 10271236
13:00−5wnw5661100 0.1 10261408
16:00−3wnw5651100 0.1 10261749
19:00−3wnw465415 0.1 10251223
22:00−5sw11675 0.0 102620
21 april, wed
wed2101:00−5wsw3669100 0.0 1025343
04:00−5ssw4766100 0.0 1024387
07:00−4ssw5963100 0.0 1023589
10:00−2ssw5753100 0.0 10231298
13:000ssw4551100 0.0 10221506
16:000ssw2357100 0.1 10231191
19:00−1ne1184100 0.3 1025360
22:00−1ene1482100 0.3 1027398
22 april, thu
thu2201:00−2ne2679100 0.3 1029212
04:00−3ne488023 0.0 1031270
07:00−4ne510775 0.0 1034332
10:00−1ne68665 0.0 1037929
13:00+2ne6851100 0.1 10381812
16:00+2ne6752100 0.1 10391673
19:00+1nne586996 0.1 1041930
22:00−1nne410835 0.0 1044337
23 april, fri
fri2301:00−2nne410885 0.0 1044321
04:00−2nne510915 0.0 1044338
07:00−2ne5119059 0.0 1044425
10:00+1ne710695 0.0 1045752
13:00+4ne785359 0.0 10431525
16:00+5ene6851100 0.0 10421870
19:00+4ne586510 0.1 1041636
22:00+1nne512825 0.0 1042278
24 april, sat
sat2401:000nne512855 0.0 1040302
04:00−1nne51188100 0.0 1038282
07:000nne51283100 0.0 1037388
10:00+3nne7107098 0.0 1036650
13:00+6nne6760100 0.0 10341253
16:00+6nne6762100 0.1 10331419
19:00+5nne5873100 0.3 1033989
22:00+2nne4996100 0.0 1033434